This demonstration page uses our WeatherBlox Daily Observations layout. Learn more.

Hourly Observations for August 9, 2016

Temp ( °F °C ) Dew Point ( °F °C ) Humidity (%) Winds ( mph kmh ) Pressure ( in mb ) Visibility ( mi km ) Precip ( " mm )
12:15 am 00:15 Mostly Cloudy 72 22 68 20 88 88 SSE 8 13 29.85 1011 10 16.09344 0 0
12:35 am 00:35 Cloudy 72 22.1 68 20 88 88 S 8 13 29.88 1012 10 16.09344 0 0
12:55 am 00:55 Mostly Cloudy 72 22.2 68 20 87 87 SSE 8 13 29.85 1011 10 16.09344 0 0
1:15 am 01:15 Partly Cloudy 71 21.7 68 20 90 90 SE 10 17 29.85 1011 10 16.09344 0 0
1:35 am 01:35 Clear 71 21.5 68 19.8 90 90 SSE 7 11 29.85 1011 10 16.09344 0 0
1:55 am 01:55 Partly Cloudy 70 21.2 67 19.7 91 91 SE 5 7 29.85 1011 10 16.09344 0 0
2:15 am 02:15 Mostly Cloudy 70 21.2 67 19.7 91 91 SSE 7 11 29.85 1011 10 16.09344 0 0
2:35 am 02:35 Cloudy 71 21.5 68 20 91 91 SE 3 6 29.85 1011 10 16.09344 0 0
2:55 am 02:55 Cloudy 71 21.7 68 20 90 90 SE 6 9 29.85 1011 10 16.09344 0 0
3:15 am 03:15 Cloudy 72 22.1 68 20 88 88 SE 13 20 29.85 1011 10 16.09344 0 0
3:35 am 03:35 Cloudy 72 22.4 68 20 86 86 SE 8 13 29.85 1011 10 16.09344 0 0
3:55 am 03:55 Cloudy 71 21.8 68 20 90 90 SE 5 7 29.85 1011 10 16.09344 0 0
4:15 am 04:15 Partly Cloudy 71 21.5 68 20 91 91 S 3 6 29.85 1011 10 16.09344 0 0
4:35 am 04:35 Clear 69 20.8 67 19.6 93 93 SE 5 7 29.85 1011 7 11.265408 0 0
4:55 am 04:55 Clear 70 21.3 68 20.1 93 93 SE 6 9 29.83 1010 10 16.09344 0 0
5:15 am 05:15 Clear 71 21.5 68 20.2 92 92 SE 6 9 29.83 1010 10 16.09344 0 0
5:35 am 05:35 Clear with Mist and Fog 70 21 68 20 94 94 SE 8 13 29.83 1010 5 8.04672 0 0
5:55 am 05:55 Partly Cloudy with Mist and Fog 69 20.8 68 19.8 94 94 SE 6 9 29.83 1010 5 8.04672 0 0
6:15 am 06:15 Mostly Cloudy with Mist and Fog 69 20.8 68 19.8 94 94 SE 3 6 29.83 1010 4 6.437376 0 0
6:35 am 06:35 Cloudy with Mist and Fog 70 21 68 20 94 94 ESE 3 6 29.83 1010 5 8.04672 0 0
6:55 am 06:55 Cloudy with Mist and Fog 70 21 68 20.1 95 95 Calm 29.85 1011 3 4.828032 0 0
7:15 am 07:15 Cloudy with Mist and Fog 70 21.2 69 20.3 95 95 S 6 9 29.85 1011 3 4.828032 0 0
7:35 am 07:35 Cloudy with Mist and Fog 71 21.6 69 20.5 93 93 SSE 3 6 29.85 1011 4 6.437376 0 0
7:55 am 07:55 Cloudy with Mist and Fog 71 21.9 69 20.7 93 93 S 6 9 29.85 1011 5 8.04672 0 0
8:15 am 08:15 Cloudy with Mist and Fog 72 22 69 20.7 92 92 S 8 13 29.85 1011 4 6.437376 0 0
8:35 am 08:35 Cloudy with Mist and Fog 72 22 69 20.7 92 92 S 7 11 29.85 1011 3 4.828032 0 0
8:55 am 08:55 Cloudy with Mist and Fog 72 22 69 20.7 92 92 SSW 9 15 29.85 1011 4 6.437376 0 0
9:15 am 09:15 Cloudy with Mist and Fog 72 22.3 70 20.9 92 92 S 9 15 29.88 1012 5 8.04672 0 0
9:35 am 09:35 Cloudy with Mist and Fog 72 22.3 69 20.8 91 91 S 9 15 29.88 1012 5 8.04672 0 0
9:55 am 09:55 Cloudy 73 22.5 69 20.7 90 90 S 7 11 29.88 1012 7 11.265408 0 0
10:15 am 10:15 Cloudy 73 22.8 69 20.7 88 88 SSW 6 9 29.88 1012 7 11.265408 0 0
10:35 am 10:35 Cloudy 74 23.5 69 20.7 84 84 S 5 7 29.85 1011 10 16.09344 0 0
10:55 am 10:55 Cloudy 77 24.8 69 20.5 77 77 S 5 7 29.85 1011 10 16.09344 0 0
11:15 am 11:15 Mostly Cloudy 77 25.2 68 20.1 73 73 SSE 5 7 29.85 1011 10 16.09344 0 0
11:35 am 11:35 Sunny 79 26.1 68 20.1 70 70 SSE 6 9 29.83 1010 10 16.09344 0 0
11:55 am 11:55 Sunny 80 26.4 69 20.4 70 70 SSE 3 6 29.8 1009 10 16.09344 0 0
12:15 pm 12:15 Sunny 82 27.6 68 20.1 64 64 SE 6 9 29.8 1009 10 16.09344 0 0
12:35 pm 12:35 Sunny 84 28.9 68 20.1 59 59 SSE 6 9 29.8 1009 10 16.09344 0 0
12:55 pm 12:55 Sunny 84 29 68 19.8 58 58 SSE 8 13 29.8 1009 10 16.09344 0 0
1:15 pm 13:15 Sunny 86 30.1 68 19.9 54 54 SSE 10 17 29.74 1007 10 16.09344 0 0
1:35 pm 13:35 Sunny 87 30.5 68 19.8 53 53 SE 9 15 29.74 1007 10 16.09344 0 0
1:55 pm 13:55 Sunny 87 30.8 68 20.1 53 53 SSE 9 15 29.74 1007 10 16.09344 0 0
2:15 pm 14:15 Sunny 89 31.5 69 20.8 53 53 SSE 12 19 29.74 1007 10 16.09344 0 0
2:35 pm 14:35 Sunny 89 31.4 69 20.3 52 52 SSE 14 22 29.74 1007 10 16.09344 0 0
2:55 pm 14:55 Sunny 89 31.7 69 20.7 52 52 SSE 15 24 29.74 1007 10 16.09344 0 0
3:15 pm 15:15 Sunny 90 32.2 69 20.3 49 49 SSE 14 22 29.74 1007 10 16.09344 0 0
3:35 pm 15:35 Sunny 90 32.1 69 20.3 50 50 SSE 10 17 29.74 1007 10 16.09344 0 0
3:55 pm 15:55 Sunny 90 32.3 69 20.6 50 50 SE 13 20 29.74 1007 10 16.09344 0 0
4:15 pm 16:15 Sunny 91 32.8 69 20.7 49 49 SSE 16 26 29.74 1007 10 16.09344 0 0
4:35 pm 16:35 Sunny 91 32.5 69 20.4 49 49 SE 15 24 29.74 1007 10 16.09344 0 0
4:55 pm 16:55 Sunny 91 32.6 66 18.7 44 44 SE 15 24 29.74 1007 10 16.09344 0 0
5:15 pm 17:15 Sunny 91 32.7 67 19.3 45 45 SE 14 22 29.74 1007 10 16.09344 0 0
5:35 pm 17:35 Sunny 91 32.7 68 19.9 47 47 SSE 13 20 29.71 1006 10 16.09344 0 0
5:55 pm 17:55 Sunny 91 32.7 69 20.3 48 48 SE 12 19 29.71 1006 10 16.09344 0 0
6:15 pm 18:15 Sunny 91 32.5 68 19.9 47 47 SSE 10 17 29.71 1006 10 16.09344 0 0
6:35 pm 18:35 Sunny 90 32.2 68 19.9 48 48 SE 13 20 29.71 1006 10 16.09344 0 0
6:55 pm 18:55 Sunny 89 31.9 68 19.9 49 49 SSE 14 22 29.71 1006 10 16.09344 0 0
7:15 pm 19:15 Sunny 89 31.5 68 20 50 50 SE 16 26 29.71 1006 10 16.09344 0 0
7:35 pm 19:35 Sunny 88 30.9 68 20.2 53 53 SE 12 19 29.71 1006 10 16.09344 0 0
7:55 pm 19:55 Sunny 87 30.3 68 20 54 54 SSE 13 20 29.71 1006 10 16.09344 0 0
8:15 pm 20:15 Sunny 85 29.3 69 20.4 59 59 SSE 12 19 29.71 1006 10 16.09344 0 0
8:35 pm 20:35 Sunny 84 28.7 69 20.3 60 60 SE 10 17 29.77 1008 10 16.09344 0 0
8:55 pm 20:55 Clear 82 28 68 20.2 63 63 SSE 9 15 29.77 1008 10 16.09344 0 0
9:15 pm 21:15 Clear 81 27 69 20.3 67 67 SSE 8 13 29.77 1008 10 16.09344 0 0
9:35 pm 21:35 Clear 79 26 69 20.5 72 72 SSE 7 11 29.77 1008 10 16.09344 0 0
9:55 pm 21:55 Clear 78 25.5 69 20.3 73 73 SSE 8 13 29.83 1010 10 16.09344 0 0
10:15 pm 22:15 Clear 78 25.3 68 20.2 73 73 SE 7 11 29.83 1010 10 16.09344 0 0
10:35 pm 22:35 Clear 77 25.1 68 20 73 73 SSE 7 11 29.83 1010 10 16.09344 0 0
10:55 pm 22:55 Clear 76 24.6 68 20 76 76 SE 8 13 29.83 1010 7 11.265408 0 0
11:15 pm 23:15 Clear 76 24.5 68 20 76 76 SSE 8 13 29.83 1010 10 16.09344 0 0
11:35 pm 23:35 Clear 75 23.7 68 20 80 80 SSE 7 11 29.83 1010 10 16.09344 0 0
11:55 pm 23:55 Clear 74 23.1 68 20 83 83 SSE 7 11 29.83 1010 10 16.09344 0 0

Powered by AerisWeather